Location: San Vito
(41.8833°N, 12.9833°E)
Time: 18:32:11
(UTC+00:00)

Cosmos 1048 Rocket - Pass Details

Date: 17 November 2019
Orbit: 743 x 792 km, 74.0° (Epoch: 14 December)

Event Time Altitude Azimuth Distance (km) Brightness Sun altitude
Rises 04:46:29 0° 342° (NNW) 3,300 7.0 -13.7°
Reaches altitude 10° 04:48:56 10° 346° (NNW) 2,366 6.3 -13.2°
Maximum altitude 04:54:17 65° 68° (ENE) 867 4.5 -12.2°
Drops below altitude 10° 04:59:34 10° 150° (SSE) 2,333 7.2 -11.3°
Sets 05:01:57 0° 154° (SSE) 3,251 7.9 -10.9°
